sat.trackr.live / text

‹ back to catalog

S-NET B

NORAD 43187 · 2018-014H

PAYLOAD ACTIVE UNKNOWN

§ Identity

Operator
Country
GER
Launch date
2018-02-01
Launch site
VOSTO
Launch vehicle
Mass (kg)
RCS (m²)

External: N2YO · Heavens-Above · Gunter

§ Orbital elements

Epoch: 2026-05-24T23:36:32.843808Z

Period
94.96 min
Inclination
97.5385°
Eccentricity
0.0010774
Mean motion
15.16384407 rev/d
Perigee alt
509.4 km
Apogee alt
524.2 km
Semi-major
6,894.9 km
B*
2.1363e-4
RAAN
49.9068°
Arg perigee
93.6237°
Mean anomaly
266.6228°
Rev number
45,524

§ Raw data

S-NET B1 43187U 18014H   26144.98371347  .00004086  00000+0  21363-3 0  99912 43187  97.5385  49.9068 0010774  93.6237 266.6228 15.16384407455248

JSON: /api/v1/satellites/43187 · /tle

For live sub-satellite position, see the globe view (requires WebGL).

§ Visibility from observer

Set your observer location to see the next 7 days of passes ≥ 10°. The values pass through the URL so the page stays shareable.

No JS? Fill the form by hand. The geolocation button needs JavaScript.

§ Radio — SatNOGS DB

ModeDescriptionDownlinkUplink
AFSK TUBiX10 AFSK 1k2 TLM 435.950 MHz
FM S-Band Downlink 2.263 GHz

2 transmitters · refreshed weekly from db.satnogs.org